Theta_e
342 344 349 349 351 355 355 355 355 355 354 354 353 353 353 351 350 349 349 348 348 348 347 347 347 347 348 349 348 348 350 351 351 351 350 349 348 347 348 347 348 348 348 348 348 347 346 347 347 346 346 346 346 345 347 348 349 349 349 349 348 347 348 348 348 348 347 348 350 351 351 350 350 350 351 352 352 352 351 351 351 350 351 351 350
339 346 349 352 351 354 355 355 355 355 354 354 354 353 352 351 350 349 349 348 348 348 347 347 347 347 347 348 348 350 350 350 349 350 350 350 349 349 348 347 347 346 346 346 345 345 344 344 345 345 346 345 345 345 344 345 347 347 348 348 346 346 346 347 347 347 347 347 347 348 349 350 350 350 351 350 351 351 349 350 350 352 351 350 350
346 347 349 352 349 352 355 355 355 354 354 354 354 353 352 351 349 349 349 348 348 348 347 347 347 347 347 347 348 350 349 349 349 350 350 349 349 347 346 346 345 344 345 346 345 344 344 342 342 343 343 343 343 343 343 343 344 346 346 346 345 344 344 346 347 347 346 346 346 347 346 347 348 349 349 349 349 349 349 349 349 350 351 351 350
344 345 349 350 346 350 354 355 355 355 354 353 353 353 352 351 350 349 349 348 348 347 347 346 346 346 346 346 347 348 348 348 348 349 349 348 347 347 346 346 346 347 346 346 345 344 343 342 341 340 339 339 339 340 341 341 342 344 344 345 345 343 342 343 346 346 345 345 346 346 346 347 345 347 349 350 350 350 349 349 348 348 348 348 350
343 345 348 351 353 349 353 354 355 355 354 353 353 352 352 351 350 349 349 348 348 347 346 346 346 346 346 347 346 347 347 347 348 349 349 348 346 347 346 346 345 346 345 346 344 343 342 341 340 339 337 336 336 336 337 338 340 341 342 343 344 342 341 340 345 345 344 344 344 344 343 344 347 346 346 348 349 348 348 348 348 347 346 347 347
343 345 348 350 352 354 349 354 355 354 354 353 352 352 351 351 351 350 349 348 347 347 347 346 346 345 346 347 347 347 347 347 347 347 348 348 347 347 346 345 345 344 345 345 343 342 341 340 339 337 335 333 333 333 333 335 337 338 340 341 341 341 341 339 344 343 342 341 343 344 344 345 345 346 347 347 347 346 346 347 347 347 348 346 345
343 345 348 349 351 351 345 353 355 354 354 353 352 351 351 350 349 349 348 348 347 346 346 346 345 345 346 347 346 346 347 347 347 347 346 347 346 345 344 344 344 344 343 342 342 341 340 339 338 337 334 332 332 332 332 332 334 336 337 338 339 340 340 340 340 339 339 344 342 342 341 344 346 347 347 347 347 346 346 346 346 346 346 346 347
343 346 348 349 351 349 346 353 355 354 353 352 352 351 351 350 349 349 348 347 347 346 346 346 346 345 347 346 346 346 347 346 346 346 347 346 345 344 343 342 342 341 341 340 340 339 338 338 337 336 333 331 331 331 332 331 334 335 336 337 336 339 340 341 340 339 339 341 343 342 342 344 345 346 345 345 345 344 345 345 345 344 345 345 344
341 345 348 349 351 345 345 350 354 354 354 353 352 351 351 350 350 350 348 347 346 346 346 346 346 346 347 346 346 346 346 346 347 346 346 345 345 343 342 342 341 341 341 340 339 339 338 337 336 335 333 330 330 330 331 332 333 333 334 336 339 340 341 339 338 337 342 343 342 343 344 343 344 345 344 345 344 343 343 343 343 343 343 343 343
341 345 347 349 350 342 344 349 355 354 353 353 352 352 351 350 350 348 347 347 346 346 346 346 346 346 347 347 347 346 346 346 346 345 345 344 343 343 342 341 340 340 339 339 339 339 338 337 335 333 332 330 330 330 329 330 332 333 333 335 338 339 340 338 336 339 340 342 342 343 345 348 344 344 344 344 344 342 342 342 341 342 342 341 341
342 345 347 349 350 341 346 350 352 353 353 353 352 351 350 350 349 348 347 347 347 346 346 346 346 346 347 347 347 347 347 346 346 344 343 343 342 342 341 340 339 338 338 338 338 338 337 337 335 333 331 329 329 329 329 330 330 331 334 335 337 338 337 336 337 341 342 342 341 342 343 342 343 344 343 343 343 341 340 340 340 340 340 340 341
342 345 347 349 344 340 345 348 351 353 352 353 352 352 350 350 349 348 347 347 346 346 346 346 346 347 347 347 347 347 347 346 345 344 343 342 342 341 340 339 338 338 337 337 337 336 336 336 335 332 330 328 327 327 327 329 330 332 333 334 335 335 335 334 339 341 342 340 340 341 341 339 340 340 340 341 341 340 338 336 336 336 337 339 339
342 343 346 349 349 338 342 347 348 351 352 353 352 352 351 349 349 349 348 347 346 345 345 346 346 346 346 347 347 347 346 346 345 343 343 342 341 341 340 339 338 338 337 336 335 335 335 335 333 331 330 328 327 327 327 326 328 331 333 334 334 334 334 334 339 340 340 340 340 341 340 342 341 342 338 338 338 338 336 335 335 334 333 334 337
341 342 344 347 348 343 338 343 345 349 351 352 352 351 350 349 349 348 347 347 346 345 346 347 345 346 346 347 345 346 345 345 344 343 343 342 341 340 340 339 339 337 336 335 335 334 334 334 332 331 329 328 327 325 326 326 327 330 332 332 331 331 330 333 335 340 339 340 340 340 340 339 339 341 336 336 336 336 334 335 335 334 333 333 333
340 343 344 345 346 346 337 339 342 344 347 350 350 349 350 349 349 349 348 348 347 347 348 348 346 346 346 346 346 345 345 344 344 343 343 342 341 340 340 340 339 337 336 335 334 334 334 334 331 330 329 328 326 324 324 325 326 328 330 330 329 327 326 335 338 339 339 340 339 340 339 339 339 338 334 334 335 335 334 334 334 334 332 333 331
338 340 341 342 344 345 347 340 336 340 342 346 347 347 348 348 348 349 348 348 347 347 348 348 348 348 347 346 345 344 343 344 343 343 343 342 341 340 339 339 337 336 335 335 334 334 334 332 330 329 328 327 324 323 323 324 324 326 327 328 327 325 324 326 335 337 337 337 339 338 337 338 337 335 334 333 334 334 334 333 334 333 330 331 331
336 339 339 340 342 343 344 346 344 334 337 340 341 342 345 347 347 348 348 347 346 347 347 347 347 347 348 346 345 344 343 343 341 341 343 342 341 340 339 338 336 336 335 335 334 333 332 331 329 328 328 325 324 322 322 322 323 323 325 325 325 324 323 322 334 335 334 337 338 338 336 337 337 335 336 336 336 335 334 333 333 332 330 330 330
336 337 338 339 341 342 343 345 347 348 349 343 335 337 341 344 345 345 344 344 344 345 346 344 345 345 343 342 341 339 340 342 342 342 342 341 341 340 340 337 336 335 335 335 334 332 332 331 329 328 327 326 325 322 318 317 319 320 320 322 322 321 322 320 334 333 334 334 335 337 335 336 336 335 335 335 334 333 332 331 331 331 328 329 330
334 336 338 338 339 341 342 344 345 346 347 348 350 347 334 338 341 341 340 342 342 341 341 341 340 339 338 337 335 332 333 336 335 336 339 337 336 334 338 337 336 335 335 334 333 332 331 330 329 328 326 325 324 321 316 314 315 316 317 319 319 318 318 325 332 333 334 333 334 334 334 335 336 334 333 331 331 332 332 331 330 329 328 329 329
332 333 336 338 338 339 341 342 343 344 346 347 348 349 337 332 336 338 338 339 338 338 338 338 333 331 328 328 328 334 331 336 327 336 332 334 332 334 334 337 336 335 335 334 333 332 331 330 329 328 326 324 322 317 313 312 313 313 314 316 317 315 326 328 330 331 331 331 332 333 330 334 335 334 332 331 331 330 331 330 328 328 327 327 329
328 331 332 334 336 338 338 340 341 343 345 346 347 347 346 331 335 332 332 334 335 334 335 330 324 320 325 321 325 348 345 344 340 341 326 338 325 326 332 335 335 335 335 334 332 331 331 330 329 328 325 323 318 313 310 310 311 311 311 314 313 321 324 325 326 327 329 330 331 331 327 331 332 333 331 331 330 330 330 329 327 327 327 328 327
319 323 328 330 332 335 337 338 340 342 343 345 346 347 347 340 347 348 346 339 333 330 339 348 335 347 326 336 346 343 342 343 344 335 339 337 332 324 326 331 334 334 333 334 333 331 331 330 330 328 325 321 318 325 317 308 308 312 310 310 315 318 321 323 324 324 326 328 328 325 327 329 332 331 332 331 330 329 329 328 327 327 327 327 327
312 313 316 318 323 332 335 337 339 341 342 343 345 346 347 346 347 347 348 337 341 343 345 346 345 345 345 346 344 344 343 342 342 339 339 328 336 322 325 328 331 331 331 332 333 331 330 330 330 327 324 320 325 325 322 317 310 305 307 310 310 313 317 320 321 322 323 324 326 320 324 327 329 331 331 331 329 328 328 327 328 327 327 327 326
310 311 312 316 318 323 332 336 337 339 340 342 343 345 346 345 345 345 347 346 347 345 343 345 345 345 344 344 343 344 344 342 327 323 327 335 332 321 323 324 325 326 325 329 330 331 331 331 329 325 322 324 326 324 323 319 315 311 308 306 307 309 312 314 316 318 320 323 324 317 321 324 326 328 330 330 329 328 328 327 328 326 325 326 326
310 311 314 314 315 315 324 333 336 338 340 341 342 343 344 346 344 344 346 346 346 347 346 345 345 345 344 343 344 344 343 341 341 340 340 338 336 334 333 334 335 335 323 336 334 333 330 332 329 326 329 328 326 324 324 322 319 315 310 306 306 307 308 309 310 313 316 317 320 314 318 320 323 326 329 331 329 327 327 326 327 326 326 325 325
311 312 314 314 315 315 316 327 334 336 338 340 341 342 343 343 344 342 343 343 342 345 344 344 345 344 343 344 343 342 342 340 340 339 338 338 337 337 337 337 337 336 333 335 334 333 332 332 331 330 328 327 326 324 322 321 321 319 316 310 307 306 306 307 307 308 310 312 316 311 315 316 319 322 325 330 329 327 326 326 327 326 326 325 324
310 312 314 315 316 317 315 322 331 334 337 339 341 341 343 343 345 346 344 341 342 342 342 342 343 343 342 343 341 341 340 340 339 339 338 338 337 336 335 336 336 335 336 334 334 333 332 331 331 329 327 326 324 323 320 319 320 320 318 315 312 310 308 307 306 306 308 308 312 310 313 315 316 317 320 325 329 331 333 331 329 326 326 325 325
310 312 314 314 315 316 316 317 328 333 335 338 339 340 341 342 345 344 340 335 339 341 340 342 343 342 341 343 341 341 339 338 338 338 338 338 337 338 337 336 335 335 335 335 333 333 331 331 329 326 326 326 324 322 320 319 319 319 319 318 317 316 315 313 311 310 309 309 309 312 311 313 315 315 317 320 326 329 331 332 334 335 326 326 325
307 310 312 314 316 317 317 317 327 331 334 336 337 339 340 340 341 343 341 338 341 341 343 342 342 342 340 340 338 340 339 338 337 337 339 337 337 337 335 335 336 335 335 334 334 333 332 331 328 325 325 325 323 323 321 321 320 319 319 319 319 318 317 316 315 313 312 310 309 309 309 312 313 314 315 318 321 326 329 329 332 334 333 327 326
306 308 310 314 317 319 319 321 326 329 333 334 336 337 339 340 340 338 342 335 339 339 341 341 341 341 339 337 336 338 338 339 338 338 337 336 337 337 336 335 335 334 334 333 334 333 331 328 327 325 325 325 325 323 323 323 321 320 319 319 319 318 317 316 315 314 313 311 310 309 308 309 310 313 314 315 317 321 326 328 330 332 334 335 333
305 307 309 312 315 319 321 322 325 329 333 333 336 336 339 336 338 339 337 338 337 336 336 336 338 339 338 338 336 334 333 335 337 338 336 336 337 336 333 332 330 328 331 332 331 330 330 328 328 327 326 325 325 322 322 323 322 321 319 319 318 318 317 316 315 314 312 311 310 309 310 308 309 310 312 313 315 317 321 325 327 329 332 334 334
304 304 306 310 314 317 321 323 324 330 333 330 336 336 337 338 338 333 333 331 331 331 331 332 328 329 331 332 331 330 331 333 333 333 332 330 327 326 326 326 326 325 325 325 325 327 325 324 323 322 322 323 321 321 320 321 322 320 319 318 317 317 317 315 314 313 312 311 310 309 308 309 309 309 309 311 313 313 315 318 322 326 329 332 333
303 303 305 309 310 314 317 324 329 330 333 333 332 331 330 329 327 326 325 324 324 323 323 323 324 324 325 327 327 327 327 327 328 328 327 325 323 323 321 320 321 321 321 321 320 321 321 321 319 320 320 321 322 321 320 321 321 320 319 318 317 317 316 315 314 313 312 311 309 308 309 309 309 309 308 309 310 312 314 315 317 321 325 328 330
301 304 305 307 309 315 318 320 323 323 322 323 322 322 322 321 322 320 319 320 320 319 319 319 320 321 320 321 323 324 325 326 326 326 326 323 322 321 321 319 319 318 317 317 316 316 315 315 314 317 314 317 318 318 317 319 319 319 319 318 316 316 315 314 314 313 312 311 310 309 308 308 309 309 310 309 308 310 312 313 314 317 320 323 326
301 302 303 305 308 313 317 319 321 321 320 319 318 317 317 318 318 317 315 315 316 316 316 316 316 317 317 317 319 320 321 322 323 322 320 321 320 318 318 317 317 317 317 317 316 315 315 314 315 315 315 315 314 313 311 312 314 315 317 315 315 315 314 313 313 312 311 311 310 310 309 308 308 309 309 308 307 308 309 311 314 316 317 320 323
300 300 302 305 306 308 316 318 319 318 316 315 314 312 310 310 310 310 310 309 309 311 312 312 312 312 314 314 316 318 320 320 320 319 318 318 317 316 316 317 317 317 316 316 317 316 316 315 313 315 316 315 314 313 310 310 312 314 315 314 314 313 313 313 313 312 312 310 310 310 309 308 308 308 305 306 307 308 307 308 310 312 315 315 317
300 300 300 303 305 305 308 314 314 313 312 311 310 308 307 305 305 305 305 305 304 304 305 306 307 307 308 309 311 314 316 317 317 317 316 316 315 315 314 315 315 315 315 315 314 315 315 313 309 308 311 312 312 311 311 312 312 312 313 313 313 312 312 312 312 311 310 309 310 309 308 308 307 303 306 307 307 308 309 305 306 308 309 310 312
299 300 300 302 303 304 305 307 309 309 309 309 307 306 305 305 304 303 303 302 302 301 301 301 302 304 303 302 304 307 309 310 312 313 312 313 313 313 313 313 313 314 313 312 311 312 312 313 311 310 310 312 310 309 309 309 310 310 311 311 311 311 311 310 310 306 308 308 308 307 306 305 306 306 305 306 306 306 307 307 307 307 307 308 310
299 299 300 302 303 304 304 304 306 308 307 307 307 305 304 303 303 303 301 300 300 300 300 299 299 300 300 301 302 302 303 306 308 308 307 308 308 308 309 310 311 310 309 308 307 308 309 309 311 311 311 309 308 307 305 306 307 309 309 309 310 310 311 309 308 307 306 306 305 304 307 306 306 305 305 305 305 305 306 306 306 307 307 308 308
299 299 300 301 302 304 305 305 305 307 308 306 305 304 303 302 301 301 300 299 299 299 299 298 299 298 300 301 300 301 301 302 304 305 305 304 304 305 305 307 307 306 305 304 304 305 306 307 307 307 309 308 306 305 305 305 306 307 308 308 310 309 309 308 307 305 305 306 306 305 305 305 304 304 305 305 304 305 305 305 305 305 306 307 308
298 299 300 299 300 301 303 302 304 305 307 308 307 306 303 301 300 299 299 299 298 299 298 299 299 299 300 300 300 300 301 302 303 305 305 303 303 304 304 304 305 304 304 303 304 305 305 307 307 306 306 306 303 304 304 305 306 305 307 308 308 308 308 306 304 305 306 306 305 304 304 303 304 304 304 303 303 304 304 304 304 304 305 306 306
297 298 298 298 299 300 301 301 303 303 304 304 303 303 302 301 300 298 297 297 297 297 296 297 297 298 298 299 299 300 301 301 301 303 303 303 303 303 304 304 305 304 304 304 303 302 303 303 304 305 305 304 302 302 302 304 303 300 300 303 306 307 307 304 303 304 305 305 304 304 303 303 303 303 303 303 304 304 303 303 303 303 304 304 304
297 297 298 299 299 299 300 301 302 302 302 303 302 301 301 301 299 298 297 295 296 296 295 295 295 295 295 296 297 298 298 299 299 300 300 301 301 301 301 301 302 303 302 301 301 301 301 302 302 301 302 303 302 302 301 302 299 300 303 302 301 300 304 302 304 303 304 303 304 305 303 303 303 303 302 304 303 302 303 303 303 303 303 303 303
296 296 296 297 298 299 300 300 301 301 301 300 300 300 299 299 299 298 297 296 294 294 294 293 293 293 292 293 294 295 295 295 296 297 297 297 298 298 299 299 299 300 300 299 299 299 299 299 300 300 300 300 300 300 301 301 299 298 297 298 298 299 299 302 298 302 303 303 304 303 302 301 303 304 304 302 302 302 303 303 303 303 302 302 303
294 294 295 295 296 297 299 299 300 300 300 300 300 300 299 298 298 298 297 295 295 293 292 291 291 291 291 292 292 293 294 293 294 294 294 294 295 295 295 295 296 296 297 296 295 296 297 298 298 298 298 298 298 299 299 300 299 300 297 296 297 298 297 296 296 300 302 302 302 302 301 302 302 301 300 301 302 302 302 302 302 302 303 302 302
292 293 294 294 296 297 298 298 299 299 299 300 301 302 301 300 298 296 293 292 290 289 289 288 289 290 290 292 292 293 293 293 293 294 294 294 294 294 294 293 293 293 293 293 293 293 293 294 295 296 296 297 298 297 296 299 299 298 299 298 297 293 293 295 296 294 300 302 301 301 301 301 301 300 300 300 301 301 301 301 301 301 302 302 302
292 293 293 293 294 295 296 297 297 297 298 298 299 298 297 296 295 293 292 290 288 289 290 290 290 291 292 291 291 292 293 293 293 293 293 294 294 294 294 293 293 293 293 293 292 292 293 293 294 294 293 294 296 294 294 294 298 298 298 298 298 298 297 294 292 294 292 298 299 300 300 300 300 299 299 300 300 299 300 300 300 300 301 301 301
292 292 292 293 293 294 294 295 295 295 296 297 296 296 295 294 293 292 291 290 289 288 289 290 291 291 291 291 291 291 292 292 292 293 293 293 293 293 293 293 292 292 292 292 292 292 293 293 293 293 293 292 292 291 291 292 291 292 295 296 296 297 297 298 297 293 291 290 293 299 300 299 298 298 299 299 299 299 299 299 299 299 299 300 300
292 292 292 292 293 293 293 293 293 293 293 294 294 294 294 293 292 291 289 290 290 290 290 291 291 291 291 291 291 291 291 292 292 292 292 292 292 292 292 292 291 291 291 292 292 292 292 291 291 291 291 292 292 292 291 290 290 289 291 291 293 293 295 297 296 295 292 290 291 292 293 296 297 297 298 298 299 298 298 298 298 299 299 300 300
291 292 292 292 292 292 292 291 291 292 292 292 292 292 292 292 291 291 290 289 290 290 291 291 291 291 291 291 291 291 291 291 291 292 292 292 292 292 292 291 291 290 290 290 291 290 290 291 291 291 291 290 291 291 290 290 291 291 291 291 289 289 290 291 292 292 292 293 289 289 291 290 289 293 295 295 296 296 297 298 298 298 299 299 300
291 291 292 291 292 291 291 290 290 290 291 291 291 291 292 292 291 291 291 291 291 291 290 290 291 291 290 290 290 290 291 291 291 291 291 291 291 291 291 291 291 290 290 290 289 289 289 289 290 290 290 289 289 290 290 290 290 290 290 290 289 289 288 287 287 289 289 288 288 288 289 289 289 288 292 294 293 293 295 296 296 297 298 298 299
Wind_Speed
8 7 9 10 7 9 13 13 13 13 13 13 14 13 13 13 12 12 12 10 9 8 8 9 9 9 9 9 9 9 9 9 10 10 12 11 12 12 13 13 14 14 13 13 13 13 13 12 12 12 12 12 12 11 11 11 12 12 12 12 12 13 12 12 12 12 11 11 12 12 12 11 11 10 12 13 13 13 11 12 9 7 7 9 10
11 8 9 11 7 7 11 13 13 13 13 13 13 13 13 13 12 12 11 10 9 8 8 9 9 9 9 9 9 9 9 9 9 10 12 12 12 13 12 13 14 14 13 13 12 12 12 12 11 11 11 11 10 10 10 9 10 10 11 11 12 12 11 11 11 11 11 10 8 9 9 12 12 12 12 13 13 13 12 13 13 7 7 11 10
4 9 9 13 7 5 9 11 12 13 13 13 13 13 12 11 11 12 11 10 9 8 8 8 8 9 9 8 9 9 9 9 9 10 12 13 13 11 12 13 12 12 12 12 13 12 12 12 12 12 11 11 10 9 9 8 8 8 9 9 11 11 11 10 10 10 10 9 7 4 10 11 11 13 12 13 13 14 13 13 13 11 9 13 11
5 9 9 11 6 5 8 9 10 11 12 12 13 11 10 11 11 12 11 10 9 9 8 8 8 8 8 8 8 8 8 8 8 10 12 12 13 12 12 12 11 13 12 13 13 13 12 12 12 12 11 11 10 9 9 8 6 7 6 8 8 9 9 9 9 9 8 8 7 6 4 6 8 10 12 13 13 14 12 13 15 14 14 12 13
6 9 9 11 11 7 8 8 10 11 12 12 11 10 10 11 10 11 12 10 10 10 9 8 8 8 8 8 8 7 7 7 8 9 11 12 12 12 11 11 11 12 13 13 13 13 13 12 12 12 11 11 10 10 9 8 7 6 5 5 6 7 7 7 7 8 8 6 7 6 5 5 6 9 9 11 13 12 11 13 13 11 10 14 13
7 9 9 12 11 11 5 8 11 11 12 12 11 10 10 9 7 10 11 11 10 10 9 9 8 8 8 8 7 7 7 7 8 9 10 12 11 11 11 10 12 12 13 13 13 13 12 12 12 12 11 10 10 10 9 8 7 6 5 5 4 5 6 5 5 6 4 3 6 3 4 5 6 6 10 11 11 11 11 12 12 12 12 11 8
7 8 10 12 10 12 6 8 11 10 12 12 12 11 10 9 8 9 10 11 10 10 9 9 8 8 8 8 8 8 7 7 8 9 10 11 11 10 10 11 12 12 11 11 12 11 11 12 12 11 11 10 10 9 9 8 7 6 5 4 4 5 5 5 4 5 4 7 3 2 3 4 6 6 10 10 11 11 11 11 12 12 12 12 12
6 7 9 11 11 11 7 7 10 10 11 11 11 11 11 10 9 9 9 10 10 10 9 8 8 8 8 8 8 8 8 8 9 10 11 11 9 9 11 11 12 11 10 10 10 10 10 11 11 11 11 10 10 9 9 8 8 7 6 6 5 5 5 4 5 5 5 2 2 3 3 3 4 5 9 10 10 10 10 10 11 12 12 13 11
6 8 9 10 10 12 7 7 10 11 12 12 11 11 12 11 9 8 9 10 10 10 9 8 8 8 8 7 8 8 8 9 11 10 11 11 12 12 12 11 11 11 10 9 10 10 10 10 11 11 11 10 10 9 9 9 8 8 8 7 7 6 4 6 4 1 3 2 1 3 2 3 4 5 8 10 11 11 11 8 7 10 12 12 10
7 7 8 8 10 8 7 7 10 11 11 11 12 12 12 12 10 10 10 10 10 10 9 9 9 8 7 8 7 7 7 10 11 11 12 12 11 12 12 11 11 10 10 10 10 9 10 10 11 12 11 10 10 10 9 9 9 9 8 8 7 5 5 5 2 2 2 1 3 3 4 9 5 5 8 9 10 11 9 9 8 8 8 9 10
6 6 7 7 10 9 6 6 8 10 10 11 12 12 12 12 11 11 10 10 10 10 9 9 9 8 8 7 8 9 9 10 11 11 11 12 10 10 10 10 10 10 9 9 9 10 10 11 12 11 11 10 10 10 9 9 9 9 9 8 7 6 6 4 5 1 1 1 1 4 4 6 3 5 8 8 9 10 10 10 9 9 10 10 10
5 5 6 6 7 6 6 6 5 7 9 9 11 12 13 12 11 11 11 10 10 10 9 9 7 8 8 8 9 10 11 11 11 11 11 11 10 9 9 10 9 9 9 9 10 10 10 11 11 11 10 10 10 10 9 9 10 9 9 8 7 7 6 3 2 1 2 2 2 1 2 1 5 6 7 8 8 9 8 9 9 10 9 10 9
3 3 4 5 9 6 4 5 4 6 6 9 11 12 13 12 12 10 11 10 10 9 9 8 7 6 7 6 8 10 12 12 11 11 11 11 10 10 9 9 9 9 9 9 9 10 10 11 10 11 10 10 10 10 10 9 9 10 10 9 7 7 5 4 1 2 2 1 2 1 1 2 3 5 4 5 6 6 6 7 8 9 9 9 8
2 3 3 4 6 6 4 4 4 4 4 7 10 9 11 12 12 11 11 11 8 8 7 6 6 5 5 5 7 9 9 12 12 12 11 10 10 10 10 9 9 9 9 10 10 10 10 10 10 10 10 10 10 10 10 10 10 10 11 9 8 6 3 2 3 1 1 2 1 1 1 1 3 7 3 5 5 6 6 6 7 8 8 7 7
1 2 2 2 5 7 4 2 3 3 3 3 6 7 10 11 11 10 10 9 9 8 5 5 6 5 3 6 7 10 12 12 12 11 11 11 10 10 10 10 9 9 10 10 10 11 11 10 10 10 10 10 10 11 10 10 10 11 11 10 9 7 8 1 1 1 1 1 1 1 1 2 7 6 4 3 5 5 6 7 8 9 8 6 7
2 1 3 3 4 5 6 5 2 2 2 2 3 7 8 9 9 9 9 9 9 8 6 6 4 3 3 4 3 4 9 11 10 11 10 10 10 9 10 10 10 10 10 10 11 11 10 10 9 9 10 10 11 11 11 11 11 11 11 10 9 8 7 7 2 1 1 1 1 0 1 3 6 5 5 4 4 4 5 8 8 8 8 6 6
2 1 3 3 4 4 6 8 8 2 2 2 3 7 7 9 9 8 8 8 9 8 6 7 6 4 4 4 5 6 6 7 7 7 10 9 10 9 10 11 10 10 10 11 11 10 9 9 9 9 9 9 10 11 11 11 11 11 11 10 9 8 7 9 1 0 1 2 2 2 2 3 6 5 6 6 6 6 6 7 7 8 8 6 5
2 0 2 3 3 4 5 7 8 8 9 6 4 6 8 8 9 8 8 8 8 8 7 7 6 6 6 6 6 6 5 5 6 8 9 9 10 9 10 11 11 10 10 11 11 9 9 8 8 8 8 8 9 9 10 10 10 10 10 9 8 7 5 8 2 1 1 1 1 1 1 9 7 4 5 5 5 5 6 6 7 8 7 5 5
3 1 1 2 3 3 5 5 7 9 11 10 9 8 6 9 9 8 8 8 8 8 7 7 6 6 6 6 7 8 6 3 3 5 10 10 10 9 9 9 11 10 10 11 10 9 9 8 7 7 7 7 8 9 9 9 9 9 10 9 6 5 5 4 2 2 1 0 2 1 6 11 8 5 4 5 5 6 6 7 7 7 6 5 4
2 2 1 2 3 4 4 5 6 8 9 9 9 9 7 8 9 8 8 8 8 8 8 7 6 6 5 6 8 8 8 6 5 3 8 10 10 10 9 8 9 10 11 11 9 8 8 8 7 7 7 7 7 7 7 7 8 8 8 8 6 7 1 2 2 1 1 2 3 2 8 11 11 7 7 6 7 6 7 7 7 6 5 5 4
2 1 1 3 3 4 4 4 6 7 8 9 8 9 7 6 9 10 9 9 8 7 7 7 8 6 6 6 6 5 6 5 7 6 5 8 10 11 10 9 9 9 10 10 8 8 8 8 7 7 6 6 7 7 6 6 7 7 6 5 7 2 3 3 3 1 1 1 2 4 10 11 10 8 7 8 7 6 6 6 6 5 5 3 4
3 3 2 1 3 4 5 6 5 7 8 7 7 6 6 6 7 7 8 7 8 7 7 7 6 5 5 5 4 4 4 4 5 7 4 5 9 12 11 8 8 9 10 9 9 8 8 8 8 8 7 6 4 1 3 5 5 5 4 3 2 3 3 3 2 2 2 2 3 6 11 11 10 8 8 8 7 5 5 5 5 4 4 3 3
5 5 4 5 3 3 5 6 7 7 7 8 6 7 8 8 9 6 6 6 6 6 8 7 6 5 4 4 4 4 4 3 2 4 5 5 6 6 9 9 9 8 10 10 8 8 8 8 8 9 7 7 2 2 2 2 2 4 2 2 3 3 3 3 2 2 2 3 2 8 9 10 9 8 8 7 6 4 3 4 5 4 4 4 2
6 5 6 4 4 4 4 6 7 7 7 7 7 7 7 8 8 6 4 7 7 6 6 7 6 6 5 3 2 3 3 4 8 8 7 4 4 6 6 7 8 8 10 8 9 7 7 8 8 9 7 1 4 3 3 2 2 3 2 2 2 2 2 2 2 2 2 2 2 7 8 9 9 8 8 8 5 4 3 4 5 3 3 4 4
6 7 4 5 5 5 4 5 6 7 7 6 6 6 7 7 8 7 5 4 5 6 6 6 7 8 7 6 6 4 5 4 4 5 6 6 6 4 4 5 4 5 9 2 4 5 5 3 4 4 2 2 5 4 3 3 2 2 2 2 1 1 1 1 2 2 2 2 2 6 6 8 9 8 8 8 6 3 3 3 4 3 2 4 3
6 5 7 7 6 6 5 4 6 7 7 7 6 5 6 6 6 7 8 6 4 5 5 5 5 5 7 7 6 6 6 6 6 6 6 6 7 7 7 6 5 5 6 3 3 4 4 3 1 1 2 3 4 4 2 2 3 3 3 3 2 2 1 1 1 2 2 2 1 4 4 6 8 8 8 7 6 4 2 2 4 4 4 4 2
7 7 7 6 7 7 4 4 5 6 8 7 6 5 6 6 6 5 6 5 5 4 4 4 5 7 7 6 7 7 6 6 6 7 6 6 7 6 6 5 5 5 6 4 3 3 3 2 1 1 2 1 1 1 1 2 2 3 2 2 3 3 2 2 2 2 2 2 1 2 3 4 6 7 8 8 8 9 10 8 7 5 6 5 5
7 9 8 8 7 8 5 3 4 6 6 7 7 6 6 6 4 3 5 5 5 5 5 4 4 3 4 4 6 7 7 6 7 7 7 7 6 4 4 4 6 6 5 4 4 4 3 2 2 1 2 2 1 1 1 1 1 2 3 3 3 3 3 3 3 3 3 3 3 2 2 4 5 7 7 8 9 10 10 10 9 9 7 6 6
8 10 9 8 9 8 6 3 4 6 5 5 7 6 6 5 5 4 0 4 4 4 5 5 5 4 5 5 6 6 6 6 7 8 7 6 6 5 5 6 8 7 5 5 4 4 3 2 2 2 1 0 1 2 1 1 2 2 3 4 4 4 4 4 4 4 4 4 4 1 1 3 6 7 7 8 8 10 11 10 11 9 8 7 7
9 9 9 8 9 8 4 0 3 5 5 5 5 5 5 5 4 4 2 4 3 4 5 3 2 1 0 2 3 3 5 7 6 6 7 7 7 7 7 7 4 0 1 5 5 3 2 2 1 1 1 1 1 1 0 1 1 2 3 4 4 4 4 4 4 4 4 4 4 4 2 3 5 7 8 8 9 10 11 11 11 10 11 10 9
9 10 9 8 8 8 5 2 4 2 3 5 4 4 3 2 3 4 1 5 7 7 6 5 5 3 2 1 1 1 2 1 2 5 5 6 6 4 3 0 1 3 2 3 5 4 3 1 0 1 1 2 2 2 2 1 1 2 2 2 3 3 3 3 4 4 4 4 4 4 4 2 4 6 7 8 9 10 11 11 11 11 11 12 12
9 10 9 9 9 9 6 4 4 4 2 5 2 4 3 1 4 8 8 8 9 8 7 6 7 6 6 7 6 5 4 2 2 3 3 5 6 5 6 5 5 5 5 5 4 4 5 5 5 5 4 3 3 2 3 3 2 1 1 1 1 2 2 2 3 3 3 4 4 4 4 3 3 3 6 7 8 9 10 10 12 12 12 12 12
6 8 10 9 10 8 7 5 5 3 6 5 4 1 7 8 9 9 7 8 9 8 8 7 6 7 8 6 5 7 5 4 5 6 7 6 5 5 6 5 5 4 4 5 5 5 4 3 4 3 4 2 3 3 2 2 3 2 2 2 2 2 2 2 2 2 2 2 3 4 4 4 5 4 6 5 6 7 9 9 10 10 12 13 13
7 7 10 10 8 7 6 6 8 11 11 9 9 9 9 10 8 9 8 10 10 9 8 8 8 7 7 8 9 8 7 7 7 8 7 6 6 7 6 6 5 4 4 4 5 4 4 3 3 2 2 2 3 3 3 3 3 3 3 2 3 2 2 3 2 2 2 2 2 2 3 3 4 4 3 4 6 6 6 8 8 9 10 11 13
6 8 9 9 10 9 8 7 10 10 10 11 13 10 10 10 9 9 9 9 10 10 8 8 8 7 7 9 10 9 9 9 9 8 7 6 7 7 6 5 5 5 5 5 4 3 2 3 1 1 0 1 1 2 3 3 4 4 4 3 3 3 3 3 3 3 3 2 2 3 3 3 2 3 3 4 3 6 4 7 10 10 10 10 10
8 7 7 8 9 9 10 11 12 12 11 12 11 10 11 10 10 11 11 11 10 9 9 9 8 8 10 9 11 12 11 10 8 7 7 7 8 8 7 6 6 6 6 6 5 5 4 3 3 2 2 2 1 1 0 2 3 4 4 4 3 3 3 3 3 3 2 3 3 2 2 2 2 2 3 4 4 2 2 4 7 10 11 11 11
8 8 8 8 9 10 10 11 11 11 12 13 13 13 12 12 12 12 11 11 10 9 8 8 9 10 9 10 11 11 11 11 10 10 11 10 8 8 7 8 6 6 6 5 5 6 5 4 3 3 3 2 2 3 2 2 3 4 4 5 4 4 3 3 3 3 2 3 3 3 3 3 3 3 3 2 3 3 4 2 4 6 8 9 10
8 8 8 8 8 7 8 8 9 10 10 11 12 12 11 11 11 11 11 11 11 8 8 8 9 9 9 9 10 11 11 12 12 10 9 9 9 9 8 7 6 6 6 6 6 4 4 4 4 3 3 3 3 4 4 4 4 4 4 5 4 4 4 3 3 3 3 4 4 4 4 3 3 3 3 3 3 3 3 1 4 6 7 5 8
6 8 8 7 7 7 7 8 8 10 10 11 12 12 12 12 11 10 11 10 9 8 7 9 8 7 8 8 8 8 8 9 10 10 9 8 8 8 7 7 7 7 7 7 7 7 6 6 5 4 3 4 4 5 6 6 6 5 4 5 5 5 4 3 2 2 3 3 4 3 2 2 2 2 3 3 3 4 4 4 4 5 3 1 6
7 7 8 9 8 8 8 8 7 7 9 9 8 8 8 7 8 8 11 10 9 9 10 9 8 9 9 9 9 8 8 8 8 8 9 7 7 7 7 7 6 6 7 8 8 7 7 5 6 5 4 3 6 5 6 7 5 6 5 5 5 4 3 2 2 3 3 3 3 4 3 2 2 3 3 3 3 3 4 4 4 4 5 4 4
9 9 10 10 10 8 8 9 6 6 6 6 6 7 8 8 9 10 10 8 8 9 10 10 9 9 11 11 11 10 10 9 9 8 8 8 7 6 6 6 6 8 9 9 8 8 7 6 3 5 7 5 6 7 8 8 5 6 5 5 4 3 2 3 3 3 5 5 4 4 3 3 3 4 3 3 2 2 3 4 4 5 5 5 5
10 10 11 9 9 9 10 7 6 7 8 8 8 9 8 7 9 8 8 8 8 9 9 9 9 9 11 11 10 10 10 10 10 10 10 9 8 8 8 8 8 9 9 9 9 8 9 9 7 5 6 7 6 9 9 9 5 8 9 7 2 2 2 3 3 5 8 3 3 3 2 3 5 4 3 3 3 3 4 4 5 5 5 5 5
8 9 8 8 9 9 8 7 7 8 8 8 9 9 9 9 10 8 9 10 10 9 9 9 9 10 11 11 10 10 10 11 11 11 9 10 9 9 8 8 9 8 8 9 9 10 9 10 11 9 6 6 6 8 10 10 7 9 7 6 4 6 3 4 1 10 5 2 4 3 3 4 4 4 4 4 5 5 5 5 5 5 5 5 5
7 8 7 8 7 7 7 8 8 9 9 9 11 12 13 13 12 11 11 10 9 9 11 10 11 12 12 11 11 11 11 11 11 10 9 10 10 9 9 9 9 9 9 9 11 11 11 10 10 11 9 7 7 7 9 9 9 10 7 6 6 4 4 1 10 7 2 1 7 4 4 4 4 5 5 6 6 7 6 6 5 5 5 5 5
8 8 8 7 5 7 7 8 8 8 8 9 10 11 11 13 11 11 11 11 10 9 10 11 10 11 11 11 11 11 11 11 11 11 10 11 11 10 10 10 10 10 9 10 11 11 10 10 10 10 11 8 7 7 7 8 10 9 7 7 4 4 5 8 12 4 4 6 3 3 3 3 5 5 4 5 7 7 7 7 7 7 6 6 6
8 7 7 7 7 6 7 8 7 7 6 6 5 4 6 8 8 9 9 9 10 9 9 9 9 9 10 9 11 11 11 11 11 11 11 10 11 11 11 10 11 10 10 10 9 10 11 11 10 9 10 10 7 7 7 7 6 9 8 6 5 6 9 10 8 4 7 5 1 2 2 4 4 4 6 7 6 6 7 7 7 8 8 7 7
7 6 6 7 7 7 8 7 7 6 6 6 6 6 8 8 10 11 10 10 11 8 7 7 8 8 8 10 10 10 11 11 11 11 11 11 10 10 10 10 10 9 9 9 10 10 9 9 8 9 9 8 8 7 8 8 5 7 7 6 6 5 6 8 7 9 9 1 2 4 5 4 5 8 7 5 6 7 6 7 8 9 9 8 8
5 6 6 7 8 8 8 8 7 8 7 6 8 7 9 9 11 11 10 10 11 10 9 8 8 7 9 10 9 9 10 10 10 11 11 10 10 10 10 10 10 9 9 9 9 9 8 8 9 9 8 8 9 8 7 7 7 7 7 7 7 6 7 6 7 7 8 11 9 4 1 5 8 7 4 6 8 6 7 8 8 9 8 8 8
5 6 6 6 7 8 9 9 10 9 8 9 9 9 9 9 10 10 12 9 10 9 8 7 8 8 10 9 9 9 9 10 10 10 10 10 9 9 10 10 10 10 9 9 8 9 10 9 9 9 9 8 7 7 6 6 6 7 7 7 7 7 6 4 4 6 8 10 12 9 9 5 5 4 5 7 5 7 8 8 8 8 8 8 7
5 5 6 6 7 7 9 11 10 8 8 9 9 10 10 9 11 10 14 10 8 8 8 8 8 7 10 9 9 9 8 9 10 10 10 10 10 10 9 10 9 8 8 8 9 9 9 9 9 8 9 9 7 7 7 6 5 5 6 6 6 7 6 5 5 8 7 6 10 13 11 13 11 6 5 3 6 8 8 6 7 7 7 7 7
5 6 6 7 7 8 9 12 10 8 8 8 9 10 9 9 10 11 12 12 10 9 9 9 8 8 9 9 9 9 9 9 9 10 11 10 11 11 10 10 10 9 9 10 10 9 8 8 8 8 9 9 7 7 7 7 6 6 7 6 6 5 5 6 7 7 7 8 10 11 12 11 11 12 2 2 6 7 5 5 7 6 6 7 8
Wind_Direction
205 182 173 155 182 185 170 166 165 163 159 154 148 145 137 131 129 125 124 124 123 121 122 121 120 116 115 114 114 115 109 108 102 102 100 104 103 99 91 92 87 85 77 70 64 63 63 61 59 57 54 51 46 48 48 44 43 48 51 50 50 50 49 48 46 45 41 45 57 63 68 70 69 67 67 61 60 53 46 34 15 72 59 61 58
165 178 176 166 176 196 172 167 165 164 159 155 149 148 139 135 131 127 125 127 128 125 122 120 121 119 116 118 113 113 119 113 103 108 111 104 98 94 97 90 84 82 78 73 69 65 62 60 58 56 55 52 49 46 45 47 44 44 48 49 48 47 48 47 45 42 38 34 41 53 49 66 65 63 67 65 63 57 52 46 38 41 58 60 60
167 167 168 164 177 197 171 171 166 165 162 154 152 148 141 137 133 131 128 133 131 129 124 127 124 121 120 116 115 111 114 108 102 106 110 105 101 95 89 88 88 84 77 74 69 63 60 59 58 55 52 50 47 42 41 41 45 41 41 47 43 42 42 45 47 41 39 33 20 63 91 68 58 62 64 67 67 63 57 54 52 47 52 52 57
169 167 168 152 169 191 165 164 169 161 159 155 153 148 139 136 140 135 135 139 140 134 133 130 127 127 120 114 112 112 113 112 106 109 119 107 104 96 90 85 80 78 75 72 68 62 58 57 54 53 47 43 42 40 36 30 35 37 42 44 38 37 39 42 46 44 32 16 354 314 68 75 70 60 65 64 64 60 58 59 59 49 48 48 55
170 163 170 164 176 172 171 160 164 160 154 158 152 147 139 142 146 138 139 143 142 137 136 134 133 133 124 121 122 118 115 116 111 108 114 110 101 100 96 93 85 80 73 67 63 59 54 51 51 48 43 37 34 32 31 27 22 25 33 39 35 29 31 37 49 48 38 5 340 301 65 78 82 69 65 67 65 59 58 59 65 69 65 49 49
169 162 168 171 174 164 173 160 163 160 158 154 149 148 141 144 142 135 142 145 145 140 138 141 140 137 134 128 124 127 122 122 122 113 113 107 100 96 98 92 84 75 69 67 63 59 56 52 47 43 41 34 29 25 22 20 18 20 18 25 19 24 31 33 47 56 39 327 277 39 59 58 67 74 73 75 69 63 60 57 56 51 51 64 49
170 164 169 174 176 167 169 170 160 159 159 159 152 149 145 142 135 137 143 145 141 139 143 143 141 145 141 140 139 138 134 131 128 116 111 106 105 101 88 83 77 75 74 73 67 59 55 53 48 42 36 32 29 23 19 17 14 15 16 10 13 19 23 43 50 40 355 275 43 37 63 60 72 75 69 67 67 63 59 57 53 50 49 37 25
175 170 169 173 182 137 171 168 159 160 163 159 156 153 146 140 140 141 147 142 143 143 147 149 145 151 159 154 153 146 140 140 112 110 109 108 106 98 89 81 82 82 73 64 58 53 48 48 46 41 37 32 27 25 21 20 17 14 13 9 9 15 27 52 62 44 320 336 13 27 47 67 83 85 70 66 60 55 55 58 51 50 45 42 25
175 177 171 172 175 133 162 172 159 161 167 162 158 158 152 145 143 146 148 148 149 148 153 156 152 163 167 163 158 153 150 131 121 120 111 103 96 92 88 85 82 75 69 59 55 55 54 52 48 43 36 30 27 25 22 22 20 16 13 12 11 17 49 64 69 214 228 35 34 58 41 81 94 92 73 63 55 51 37 30 61 50 48 40 38
168 173 176 176 175 135 166 170 165 168 170 167 162 160 157 149 148 153 156 153 154 154 163 158 166 170 166 168 163 155 141 132 125 123 115 101 94 90 86 82 75 71 63 60 61 55 52 48 46 42 34 30 28 26 24 21 20 18 15 12 14 29 59 67 82 287 6 86 72 61 33 332 76 57 68 65 58 52 52 46 47 36 41 45 42
162 170 179 178 180 145 171 174 165 170 169 170 167 163 160 153 155 158 158 158 160 158 165 169 172 176 166 171 158 151 141 135 131 133 120 106 98 95 89 84 80 71 64 60 58 51 51 52 51 45 36 30 28 26 24 23 21 18 18 19 25 42 51 48 272 113 49 65 75 86 95 273 65 67 65 65 60 54 44 43 40 40 36 35 36
165 165 175 177 138 154 168 178 174 173 166 172 169 167 163 158 155 159 161 161 164 163 168 169 188 174 168 171 149 155 147 144 144 134 125 113 114 105 97 93 85 77 68 60 59 52 49 49 49 46 43 33 28 26 25 23 22 22 22 25 34 45 39 22 285 122 149 158 103 60 58 5 45 66 56 56 54 54 43 37 35 33 29 23 29
162 165 171 174 186 154 185 181 184 176 167 174 177 171 166 161 161 163 161 164 169 170 171 169 192 185 173 173 158 156 157 150 149 137 127 127 122 115 108 101 93 82 69 64 63 56 48 49 48 47 44 38 32 29 27 26 23 23 26 30 37 48 38 345 179 176 171 138 114 156 80 77 67 31 54 58 47 41 31 29 29 24 19 17 18
174 182 170 182 194 132 194 198 188 183 176 184 185 180 172 167 165 167 163 164 169 173 169 169 187 196 168 185 169 154 154 154 150 139 133 132 130 123 116 107 94 80 68 67 63 56 50 52 48 44 42 39 36 30 29 27 27 26 28 31 35 38 349 43 339 187 139 144 102 49 5 26 47 355 350 44 51 42 23 22 19 14 11 12 14
5 215 194 186 191 203 162 217 200 202 187 189 186 184 179 175 169 167 165 160 163 172 168 166 178 190 182 177 179 159 167 158 153 145 139 137 135 126 119 111 96 83 78 71 63 60 64 62 52 46 43 38 37 34 30 29 29 28 29 29 32 23 344 92 273 152 147 122 150 179 59 316 27 331 350 14 55 37 6 3 357 4 11 14 5
357 227 220 211 212 203 195 173 244 223 205 196 179 178 178 177 175 170 165 160 163 171 161 162 163 144 135 172 140 155 170 164 163 149 141 139 135 132 120 112 100 91 85 77 71 66 69 63 56 52 47 45 38 35 33 29 29 30 31 31 25 18 8 326 151 139 176 183 112 312 8 39 21 351 350 40 59 25 358 347 352 359 356 6 16
28 253 207 209 211 219 212 209 196 197 206 223 179 186 185 176 183 174 166 162 164 170 164 155 155 127 122 125 144 156 182 160 160 162 141 140 137 125 122 115 104 97 92 87 80 76 74 69 64 54 53 51 40 37 36 30 26 29 32 28 22 20 8 330 116 172 33 31 353 331 1 19 34 13 24 23 11 354 350 347 350 2 358 8 12
31 276 208 210 218 219 222 216 207 207 210 188 182 196 186 184 186 177 172 165 169 169 165 162 159 152 123 122 129 117 162 151 179 167 147 135 127 127 127 119 114 103 97 94 89 89 90 82 70 63 60 53 44 40 39 34 27 25 29 26 18 9 11 311 42 37 37 360 289 350 328 14 348 358 353 341 343 336 335 353 357 354 347 353 20
39 356 245 224 226 224 224 227 217 216 217 217 216 190 199 191 190 186 173 170 168 170 166 165 159 145 127 125 127 111 101 131 190 210 142 136 136 125 118 119 116 107 101 95 97 105 104 94 84 80 76 61 53 45 44 44 40 28 22 21 9 347 300 273 55 30 305 18 356 319 31 350 352 318 337 337 340 340 344 355 355 349 353 346 20
58 2 290 240 235 230 226 224 223 219 217 221 220 219 181 190 183 192 173 173 174 168 168 164 150 141 128 129 132 134 133 139 151 232 145 141 134 127 128 126 116 107 105 104 109 113 115 107 99 99 89 79 68 60 47 47 47 44 26 9 357 296 293 32 7 19 328 35 343 16 9 351 349 329 326 321 334 341 344 352 349 346 349 358 29
50 82 337 318 295 254 241 236 230 224 223 223 226 225 189 197 183 180 184 173 174 169 166 155 148 133 144 131 151 208 183 152 155 185 156 152 136 137 143 134 124 122 116 116 123 124 124 118 111 110 104 100 98 94 67 49 54 48 42 15 314 303 35 12 350 358 1 345 319 37 356 355 350 330 322 325 328 338 356 350 347 349 337 345 25
357 0 55 357 287 275 250 240 232 229 227 223 226 220 215 173 212 183 187 194 177 185 174 186 171 171 148 152 202 229 230 195 165 151 184 146 154 145 134 144 137 139 126 133 143 138 133 124 131 126 124 117 178 153 105 97 65 44 47 356 313 25 22 4 355 352 6 17 333 17 353 352 352 327 327 324 329 345 359 343 326 337 342 355 3
356 348 333 337 321 272 252 241 234 227 225 228 226 226 227 220 222 216 206 177 184 193 214 199 207 197 192 202 212 225 243 224 198 145 170 179 141 145 146 155 145 145 136 146 150 138 137 146 146 140 130 160 178 29 42 32 95 165 204 48 41 22 359 360 338 347 353 24 326 12 355 351 351 339 326 320 318 339 358 338 320 344 359 349 316
340 335 318 319 318 288 255 242 236 232 223 221 222 227 224 229 227 212 227 200 194 191 224 214 203 186 184 194 206 243 242 246 98 123 131 144 149 148 154 155 149 147 146 159 140 148 161 157 146 140 162 124 31 13 11 32 30 20 33 35 44 40 7 348 354 336 322 51 9 12 357 350 346 339 325 324 318 328 355 334 319 336 328 326 327
333 317 313 326 328 310 282 240 233 232 227 223 224 229 229 227 225 224 205 224 198 192 206 225 213 200 188 201 202 188 229 230 197 177 197 176 166 154 173 181 170 161 185 226 186 150 195 175 154 183 45 70 32 27 0 1 23 20 29 25 31 29 17 7 344 332 325 321 46 11 358 347 340 333 331 323 320 324 310 324 308 284 298 283 334
340 329 337 323 333 324 296 273 226 223 224 225 217 214 218 232 223 224 226 221 214 240 218 201 209 208 217 196 199 201 213 225 212 210 203 201 197 197 204 223 210 208 201 235 229 197 227 200 178 131 98 31 35 31 9 353 3 8 17 21 3 359 351 357 345 324 315 308 47 23 352 341 335 329 323 317 310 299 282 279 292 293 254 281 286
341 340 333 332 330 328 311 274 234 216 217 222 225 221 221 216 233 219 227 226 225 210 203 219 224 223 230 214 214 211 212 222 218 214 214 212 217 222 220 216 219 228 227 238 212 216 225 249 360 87 100 112 68 94 81 43 5 354 4 9 6 349 346 350 337 325 317 306 347 123 337 328 329 324 315 306 298 301 313 316 304 282 281 268 267
343 348 343 337 335 330 321 262 224 206 206 214 216 214 220 225 225 241 213 223 232 230 216 206 201 217 243 247 227 226 211 218 225 222 217 221 232 216 205 199 217 235 231 238 220 220 214 229 96 95 183 184 118 63 65 42 8 346 349 358 351 341 350 341 334 327 311 306 302 143 336 325 324 321 316 305 297 299 307 315 320 315 274 273 272
354 348 342 341 342 337 315 257 208 196 195 203 215 212 215 218 221 224 208 355 273 254 263 237 210 201 208 224 253 241 217 208 218 227 226 224 224 208 201 225 228 240 239 239 233 224 221 213 139 155 255 206 163 157 147 83 337 12 350 353 344 345 343 333 334 328 315 311 310 43 359 324 317 317 317 314 305 300 301 306 310 315 317 290 273
353 340 341 344 345 345 337 256 186 180 175 195 202 204 212 214 225 243 199 89 40 41 349 318 330 34 123 245 206 233 219 210 208 228 230 223 223 221 220 228 241 282 243 248 252 257 228 156 102 163 221 242 264 86 358 82 36 13 7 351 346 344 338 334 329 326 324 312 310 311 167 292 311 314 319 320 315 307 302 305 308 312 312 313 307
346 348 344 341 339 351 20 45 147 103 186 170 192 190 180 186 220 260 43 82 64 54 42 38 18 351 345 258 284 12 4 358 270 234 232 245 251 232 219 100 25 32 351 329 16 7 22 321 236 281 303 311 355 32 342 25 44 44 31 346 346 326 330 327 324 320 320 322 318 317 310 232 294 311 315 316 317 315 312 312 312 312 311 312 314
354 347 341 337 342 356 18 75 124 151 163 146 147 123 132 96 70 54 51 57 58 51 42 40 48 38 35 34 41 34 20 29 51 52 44 39 41 45 42 42 35 32 29 33 30 28 13 26 29 14 6 359 8 13 360 334 358 30 336 281 281 294 302 310 307 315 317 321 315 314 314 312 226 256 295 303 311 315 317 313 315 318 320 317 321
350 342 341 346 352 348 351 26 71 56 78 92 146 33 63 60 59 64 57 56 59 55 48 47 44 46 48 39 51 58 50 51 59 68 75 73 62 62 66 61 61 55 43 45 50 43 35 25 37 5 14 348 347 356 342 330 335 327 280 249 249 236 242 261 266 266 292 295 307 309 309 304 305 242 230 262 292 305 309 313 312 315 319 322 323
346 347 351 1 354 10 10 21 46 56 57 61 59 60 65 68 66 66 58 63 68 61 53 50 46 46 51 47 53 54 53 61 73 73 75 75 76 74 68 64 64 72 78 76 72 67 69 60 42 30 27 11 1 347 338 333 324 302 288 285 277 285 284 262 253 256 232 231 243 268 280 296 299 310 313 237 247 281 293 305 312 314 313 318 321
2 359 3 1 8 10 18 39 50 64 66 68 64 57 62 66 63 63 55 52 56 57 50 49 42 39 40 50 56 59 63 70 72 77 66 72 75 71 65 65 67 67 67 64 76 90 100 83 82 81 135 51 42 25 352 327 313 309 309 312 304 313 289 284 283 270 256 255 237 223 232 257 280 301 298 319 213 212 283 319 324 320 317 316 318
10 2 6 16 19 14 40 55 59 67 58 64 66 61 60 57 58 60 53 47 51 54 48 44 37 42 54 52 51 63 65 64 63 67 70 64 73 71 66 62 71 77 77 78 80 72 68 78 60 31 32 50 21 72 227 290 293 300 301 295 291 282 291 285 282 281 287 290 281 272 273 265 261 287 307 287 306 336 131 331 326 325 324 323 318
14 12 14 27 32 21 18 46 55 64 68 70 69 66 66 63 62 62 61 58 54 47 40 44 46 40 36 39 31 42 45 58 58 64 74 69 66 63 57 56 53 66 69 68 64 63 66 65 44 16 23 43 11 360 340 308 312 307 300 296 291 289 286 301 297 302 287 277 295 307 311 314 313 284 276 305 311 315 124 136 313 307 310 309 317
21 21 21 35 43 35 34 34 50 53 62 70 69 69 69 70 67 66 64 63 56 51 46 45 45 43 44 39 35 37 39 38 42 47 57 56 54 56 55 52 60 69 66 62 63 55 51 49 58 47 23 12 21 10 353 334 316 303 304 300 298 286 284 277 288 300 306 327 331 335 326 320 318 330 325 318 319 317 324 234 217 253 254 279 305
29 25 27 33 45 44 46 40 50 60 74 79 80 77 75 74 74 70 64 59 56 47 44 50 40 37 38 38 36 43 31 37 46 52 58 53 55 50 51 44 49 54 53 46 38 33 33 29 30 42 63 39 21 17 354 325 304 292 284 286 281 277 283 283 307 344 351 355 336 315 299 323 349 341 331 328 330 337 329 326 329 328 307 221 295
33 28 35 36 42 51 62 58 43 65 81 84 87 83 74 64 72 69 62 52 53 49 44 43 39 34 27 34 33 36 33 37 41 54 62 58 58 52 49 40 43 51 52 49 42 35 23 27 36 19 26 81 37 9 348 318 296 288 281 287 284 294 289 312 34 44 22 341 328 328 336 2 1 3 353 346 357 342 334 330 325 319 320 301 259
39 37 42 38 37 42 57 55 44 46 74 84 79 84 86 84 69 66 73 61 59 58 54 46 45 41 35 36 34 31 27 30 32 43 58 64 62 58 55 53 55 57 57 54 47 39 28 17 29 41 22 31 30 8 354 319 326 333 324 310 303 299 336 66 96 49 350 334 351 353 359 360 24 7 10 4 349 349 339 341 336 333 327 324 312
36 41 44 40 42 46 52 53 51 61 62 70 78 71 64 71 86 77 80 67 63 61 61 51 48 45 43 41 41 37 36 35 31 35 42 47 53 53 49 46 48 56 59 58 54 48 39 33 18 38 47 34 34 11 8 347 9 345 329 332 296 353 75 109 105 9 341 12 30 19 7 21 15 9 9 357 357 2 5 352 348 332 326 325 321
49 49 46 52 49 53 51 55 57 61 58 65 76 80 80 79 85 90 87 84 70 72 73 68 61 59 52 48 46 43 42 42 37 35 36 36 44 49 48 47 47 49 56 52 47 44 37 34 31 24 18 41 36 29 18 15 351 332 302 305 348 347 144 139 1 341 336 65 4 6 23 22 37 19 357 354 5 3 357 349 339 329 325 322 320
46 47 40 46 50 53 53 62 63 67 70 71 82 84 85 87 85 88 84 84 88 82 77 69 63 60 54 50 46 45 45 47 42 44 46 44 43 47 47 45 45 45 49 49 41 37 32 29 27 27 15 24 26 28 29 21 15 351 358 341 310 313 320 92 343 322 141 22 5 48 46 44 32 11 351 359 359 345 335 337 329 327 323 316 314
44 38 32 37 46 49 52 60 66 68 73 82 91 98 101 97 99 97 95 92 80 73 71 63 60 60 60 49 45 45 47 49 46 45 47 46 45 45 48 48 47 45 49 49 46 39 34 32 25 29 25 13 18 18 29 25 26 19 355 339 335 317 358 329 330 320 136 337 25 57 66 22 4 359 4 347 337 333 332 331 332 327 319 315 309
49 38 39 43 51 57 60 65 68 66 67 58 57 90 101 110 115 107 95 83 73 62 60 65 63 62 64 62 55 51 51 50 48 47 45 46 46 44 45 47 47 45 46 50 48 45 36 32 29 29 27 19 6 24 15 19 32 28 18 16 350 331 327 325 317 313 321 294 86 331 0 5 20 7 334 330 336 334 335 332 331 326 320 313 309
53 50 56 57 61 64 62 64 69 68 59 68 71 80 79 79 82 84 87 91 96 80 78 76 79 76 75 70 65 56 52 54 50 48 46 46 47 44 45 47 47 48 46 48 46 43 39 32 25 31 30 23 20 34 24 8 9 32 14 6 354 331 323 324 329 320 320 42 310 342 337 18 5 337 328 335 338 334 336 335 327 322 318 314 312
65 67 66 66 67 67 72 73 73 70 63 71 70 72 87 85 87 88 87 87 88 97 89 82 78 81 79 74 72 64 57 55 55 50 48 45 45 46 44 46 47 44 44 46 45 39 38 35 32 30 32 33 29 28 24 21 16 9 1 2 354 340 325 301 315 319 311 307 306 307 317 345 337 330 345 343 332 339 335 326 320 317 314 315 311
63 66 69 73 77 77 78 80 77 74 67 67 76 74 84 90 93 97 93 87 92 93 93 88 84 81 80 74 72 71 66 58 54 52 48 47 46 46 45 46 45 42 40 41 40 38 37 34 30 30 26 28 31 25 24 22 18 12 358 2 354 349 336 344 330 334 321 312 306 323 317 315 304 317 332 322 331 336 323 315 316 312 314 313 315
71 75 76 80 79 80 80 79 73 70 69 72 80 82 82 90 90 91 97 98 97 95 91 89 85 79 76 71 68 64 60 59 55 50 48 45 44 44 45 44 44 42 40 37 34 34 30 30 30 30 26 25 23 22 23 14 10 12 4 352 359 353 349 346 343 337 319 300 303 314 319 323 322 322 312 319 331 325 319 317 320 318 316 321 322
80 82 76 76 75 78 83 80 76 78 76 80 82 79 79 83 88 89 92 97 96 97 94 85 82 77 74 70 66 63 59 56 54 50 44 40 42 39 38 38 37 36 34 31 27 24 23 21 21 23 28 23 18 9 15 18 3 7 5 1 359 360 350 335 331 334 322 314 312 308 315 314 312 313 308 352 318 317 310 321 310 310 324 324 320